Wind_Speed
7 6 5 4 3 3 3 3 2 2 2 2 2 3 3 3 3 3 4 5 6 6 7 9 10 11 12 12 12 12 12 12 12 12 12 12 11 10 10 9 8 7 6
8 6 5 4 3 3 3 2 2 2 2 2 2 2 2 2 2 3 3 4 5 6 7 8 9 10 12 12 13 14 13 13 13 13 13 13 13 12 12 11 10 9 8
8 7 6 4 3 3 3 3 2 2 2 2 2 2 2 2 2 2 3 3 4 5 6 7 9 10 11 12 12 13 14 14 13 13 14 14 14 14 13 13 13 12 11
8 7 6 5 4 4 3 3 2 2 2 2 2 2 1 1 1 2 2 3 3 4 4 5 7 8 9 10 11 12 13 13 14 14 14 15 15 15 15 14 14 15 14
9 8 7 6 5 5 4 4 3 2 2 2 2 1 1 1 1 1 1 2 3 3 4 4 5 6 7 8 9 10 10 11 12 13 13 14 14 15 16 15 15 15 16
10 9 8 7 6 6 5 4 3 3 2 2 1 1 1 1 1 1 1 2 2 3 3 3 4 4 5 6 6 6 7 8 10 11 12 13 14 15 16 16 16 16 16
11 10 9 8 7 6 5 4 4 3 3 2 2 2 1 1 1 2 2 2 2 3 3 4 4 4 4 5 5 6 6 6 8 9 11 12 13 14 15 16 16 16 17
12 11 10 9 8 7 6 5 5 4 3 3 3 2 2 2 2 2 3 2 3 3 3 4 4 5 4 5 5 6 6 7 8 8 8 9 11 12 13 14 14 15 16
13 12 11 11 9 8 7 6 5 5 4 4 3 3 3 2 3 3 3 4 4 4 5 5 5 5 6 6 6 6 7 7 7 8 9 9 10 11 12 13 13 14 15
13 13 12 12 10 9 8 7 7 6 6 5 4 4 4 3 3 4 4 5 5 6 6 6 7 7 7 8 8 8 9 9 9 9 10 10 10 11 12 13 13 14 15
15 14 13 13 12 11 10 9 8 8 7 6 6 6 5 5 5 6 6 7 8 8 9 9 9 9 10 10 10 11 11 11 12 12 12 12 12 12 13 13 13 14 15
15 14 14 13 13 12 11 11 10 9 9 8 8 8 8 8 8 9 9 9 10 10 11 11 12 12 12 12 12 13 13 13 14 14 15 14 14 14 15 15 15 15 16
15 15 15 14 14 13 13 12 12 11 11 11 11 11 11 11 11 12 12 12 13 13 14 14 14 15 15 15 15 16 16 16 16 16 17 17 17 17 17 17 18 18 18
15 15 15 15 15 15 14 14 14 13 13 13 14 14 14 14 15 15 15 16 16 17 17 17 18 19 19 19 19 19 19 19 19 19 19 19 20 20 20 20 20 20 20
15 15 15 16 16 16 15 16 16 16 16 16 16 17 17 17 18 18 18 19 20 20 21 21 22 22 23 23 23 23 22 22 22 22 23 23 23 23 23 23 23 23 23
16 15 15 16 17 17 18 18 19 19 19 19 20 20 20 21 21 22 22 23 24 24 25 25 25 26 26 26 26 27 27 26 26 26 26 26 26 26 27 27 27 27 27
16 16 16 17 18 19 19 20 21 21 21 22 22 23 24 24 24 25 26 27 27 28 28 29 29 29 30 30 30 31 31 30 30 30 30 30 30 31 30 30 30 30 30
16 16 17 18 19 20 20 21 22 23 24 24 24 25 26 27 28 28 29 30 31 31 32 32 33 33 33 34 34 34 34 34 34 34 34 34 34 34 35 34 35 35 35
17 17 18 19 20 21 22 23 24 25 26 27 28 29 29 30 31 32 32 32 33 34 35 35 36 37 37 38 38 38 38 37 37 38 38 38 38 38 38 38 38 38 38
18 19 19 20 21 22 23 25 26 27 28 29 30 31 32 33 34 35 35 36 37 38 38 38 39 40 40 41 41 42 42 42 42 42 42 42 42 41 41 41 41 41 41
19 20 20 21 22 23 25 26 27 28 30 31 32 34 35 35 37 37 38 39 40 41 41 42 42 43 43 43 43 44 44 44 45 44 44 44 45 44 44 44 44 44 44
20 20 21 22 24 25 26 27 29 31 32 33 34 35 37 37 38 39 40 41 43 44 44 45 45 45 45 46 46 47 47 48 47 46 46 46 47 47 47 47 47 46 46
20 21 23 24 25 26 28 30 32 33 34 35 36 37 39 39 41 42 43 44 45 46 47 48 48 47 47 48 48 49 49 49 48 49 50 48 49 50 50 50 50 50 50
22 23 25 26 28 30 31 33 34 36 37 38 39 40 41 42 43 44 46 46 47 47 47 48 49 50 51 51 52 52 53 53 52 52 53 53 52 53 54 54 54 54 55
24 26 27 29 31 32 34 36 37 38 39 40 42 43 44 45 46 47 48 48 49 49 50 50 50 51 52 52 53 54 54 55 54 54 55 55 54 55 55 55 55 56 56
26 28 30 31 33 35 36 37 39 40 41 43 44 45 45 46 48 49 51 51 52 52 53 53 53 54 55 55 55 56 55 55 56 56 56 57 57 57 57 57 57 58 58
Wind_Direction
214 215 207 207 209 211 213 224 234 229 228 220 210 216 204 210 226 231 243 241 244 241 241 235 234 231 228 227 227 228 232 233 235 235 235 234 233 234 235 237 237 238 241
208 210 209 211 216 210 204 207 210 209 215 204 201 198 198 204 228 241 243 245 246 247 248 244 241 239 235 233 234 233 235 237 236 238 239 239 237 237 238 240 242 244 246
209 209 207 211 211 203 196 192 196 198 198 186 186 188 201 211 237 252 249 252 253 256 254 253 251 247 248 247 244 244 240 237 239 241 240 241 241 240 241 242 243 246 248
214 209 205 203 199 193 185 187 187 181 181 188 180 184 214 222 236 251 252 250 255 262 267 260 258 256 254 258 259 254 249 244 243 244 243 242 243 243 243 244 246 248 250
214 208 201 197 193 185 179 181 182 180 176 168 161 179 214 239 243 247 252 256 262 269 272 267 265 264 263 262 265 264 259 252 250 251 249 247 247 245 245 246 249 251 252
215 209 203 195 187 184 182 182 185 191 193 184 182 201 218 246 245 257 262 267 272 280 282 278 271 269 269 265 262 269 267 260 256 257 255 251 249 249 249 249 250 251 252
215 209 204 194 191 192 189 185 188 194 202 203 214 218 223 230 249 254 261 267 279 294 295 296 294 283 274 272 271 270 269 271 266 263 261 258 256 253 253 254 255 254 254
212 207 203 199 198 198 197 195 197 201 207 215 222 224 230 238 251 258 263 271 283 295 301 300 298 298 293 287 284 277 270 272 270 271 271 266 263 261 260 258 257 257 256
213 207 205 204 203 203 204 206 211 214 219 224 226 232 239 247 252 259 264 272 283 290 296 297 298 298 299 297 295 291 285 283 278 277 275 271 269 267 266 266 264 263 261
213 212 211 210 210 212 214 215 220 226 230 234 235 237 244 249 253 261 272 276 280 284 286 287 290 292 293 293 293 291 288 286 284 283 282 278 276 275 273 271 270 268 266
214 214 214 214 216 218 221 222 225 230 234 238 243 245 248 254 261 268 274 279 282 283 283 283 284 286 288 289 287 286 284 283 280 281 281 281 279 277 276 275 273 272 271
212 212 215 217 219 222 225 230 232 235 239 241 245 247 251 257 263 269 274 278 279 281 281 281 282 284 285 286 286 285 285 283 281 280 279 279 278 277 276 276 275 275 275
215 217 219 222 224 227 230 234 238 240 243 245 247 250 253 258 264 268 271 275 277 278 278 278 279 281 282 284 285 285 285 284 283 282 280 278 277 277 276 275 275 274 275
216 218 221 224 227 230 233 237 242 246 250 252 253 255 258 261 265 268 271 273 275 277 277 277 277 278 279 280 281 282 282 282 281 280 279 279 278 277 276 275 274 274 273
218 223 226 229 233 235 238 243 247 250 254 257 258 258 261 264 267 269 271 273 275 277 277 277 277 277 278 278 279 279 279 279 279 279 277 277 277 277 276 276 275 275 275
225 229 233 237 239 242 246 249 251 253 256 259 260 261 262 265 268 270 272 274 275 276 277 278 277 277 277 277 277 277 277 277 277 276 276 276 275 275 275 274 274 274 274
230 234 239 243 245 249 253 254 256 257 260 263 264 265 266 267 269 271 273 273 274 276 277 277 278 277 277 276 276 276 277 277 277 276 275 275 275 275 274 274 274 273 273
235 241 246 249 251 254 257 259 261 263 264 266 267 268 270 271 272 273 275 275 275 276 276 277 278 278 277 276 276 276 276 276 276 276 276 275 275 275 274 274 273 273 272
243 247 251 255 256 259 262 264 265 267 269 269 270 271 272 273 273 274 275 276 276 277 277 276 277 277 276 276 275 275 275 275 276 277 277 276 276 275 274 274 273 272 271
248 252 256 261 263 265 266 267 268 269 271 272 273 273 274 274 275 275 275 276 276 276 276 277 277 277 276 275 274 274 274 275 275 276 276 276 275 275 274 274 274 273 272
254 257 262 265 267 268 270 271 272 273 274 274 276 276 276 276 276 276 276 276 277 277 276 277 276 277 276 275 274 274 274 275 275 275 275 275 274 274 273 273 273 273 272
260 263 265 268 271 272 273 274 276 277 277 277 277 277 278 279 278 278 278 279 279 277 277 277 276 276 276 275 274 274 274 274 274 273 273 273 273 274 274 273 272 272 272
263 266 270 272 275 276 278 279 280 280 280 281 281 281 281 281 281 281 280 281 280 279 278 277 277 277 276 275 275 275 275 275 274 274 273 273 273 273 273 272 272 272 272
269 270 274 276 278 279 281 283 283 284 283 282 282 282 282 282 282 282 282 281 281 282 280 278 278 276 276 276 276 276 275 275 275 275 274 273 273 274 273 273 273 272 272
274 277 278 279 280 281 283 283 283 283 283 283 282 282 282 282 281 282 282 281 282 282 281 280 279 278 278 278 277 276 276 276 275 274 274 274 273 273 273 273 273 273 273
277 279 279 280 281 282 283 284 285 284 284 284 284 283 283 282 282 281 282 282 282 282 282 281 280 280 279 279 278 278 277 277 276 276 275 275 274 274 274 273 274 273 273
Height
5884 5885 5885 5886 5886 5887 5887 5887 5888 5888 5888 5888 5888 5888 5889 5889 5889 5889 5889 5890 5890 5890 5891 5891 5892 5892 5893 5894 5895 5896 5897 5898 5899 5900 5901 5902 5902 5903 5904 5904 5905 5905 5905
5882 5883 5884 5885 5885 5886 5886 5887 5887 5887 5887 5887 5888 5888 5888 5888 5888 5888 5889 5889 5889 5889 5889 5890 5890 5891 5891 5892 5893 5894 5895 5896 5897 5898 5899 5899 5900 5901 5902 5903 5903 5904 5904
5881 5882 5883 5884 5885 5885 5886 5886 5887 5887 5887 5887 5887 5888 5888 5888 5888 5888 5888 5888 5888 5888 5888 5888 5889 5889 5890 5890 5891 5892 5892 5893 5894 5895 5896 5897 5898 5899 5899 5900 5901 5902 5902
5880 5881 5882 5883 5884 5885 5885 5886 5886 5887 5887 5887 5887 5887 5888 5888 5888 5888 5888 5888 5887 5887 5887 5887 5888 5888 5888 5889 5889 5889 5890 5891 5892 5892 5893 5894 5895 5896 5897 5898 5899 5899 5900
5879 5880 5881 5882 5883 5884 5885 5886 5886 5887 5887 5887 5887 5887 5887 5888 5888 5888 5888 5887 5887 5887 5887 5886 5886 5887 5887 5887 5887 5887 5888 5888 5889 5889 5890 5891 5892 5893 5894 5895 5896 5896 5897
5877 5879 5880 5881 5883 5884 5885 5885 5886 5886 5887 5887 5887 5887 5887 5887 5887 5888 5887 5887 5887 5887 5886 5886 5886 5885 5885 5885 5886 5886 5886 5886 5887 5887 5888 5888 5889 5890 5891 5891 5892 5893 5893
5876 5878 5879 5881 5882 5883 5884 5885 5886 5886 5887 5887 5887 5887 5887 5887 5887 5887 5887 5887 5887 5886 5886 5885 5885 5885 5884 5884 5884 5884 5884 5884 5885 5885 5885 5886 5886 5887 5887 5888 5889 5889 5890
5875 5876 5878 5880 5881 5883 5884 5884 5885 5886 5886 5887 5887 5887 5887 5888 5887 5887 5887 5887 5887 5886 5885 5885 5885 5884 5884 5883 5883 5883 5883 5883 5883 5883 5883 5883 5884 5884 5884 5885 5885 5886 5886
5873 5875 5877 5879 5880 5882 5883 5884 5885 5885 5886 5886 5886 5887 5887 5887 5887 5887 5887 5886 5886 5886 5885 5884 5884 5884 5883 5883 5882 5882 5882 5882 5881 5881 5881 5881 5881 5881 5882 5882 5882 5882 5883
5871 5873 5875 5877 5879 5881 5882 5883 5884 5885 5885 5885 5885 5885 5886 5886 5886 5886 5886 5886 5885 5885 5884 5884 5883 5883 5882 5882 5881 5881 5881 5880 5880 5880 5880 5879 5879 5879 5879 5879 5879 5879 5879
5869 5871 5874 5876 5877 5879 5880 5882 5882 5883 5884 5884 5884 5884 5885 5885 5885 5885 5885 5885 5884 5884 5883 5882 5882 5881 5881 5880 5880 5879 5879 5878 5878 5878 5877 5877 5877 5876 5876 5876 5876 5876 5875
5867 5869 5872 5874 5875 5877 5878 5880 5881 5881 5882 5882 5883 5883 5883 5883 5883 5883 5883 5883 5882 5882 5881 5880 5880 5879 5878 5878 5877 5877 5876 5876 5875 5875 5875 5874 5874 5874 5873 5873 5872 5872 5872
5865 5868 5870 5871 5873 5875 5876 5877 5878 5879 5879 5880 5880 5881 5881 5881 5881 5881 5881 5880 5880 5879 5878 5878 5877 5876 5876 5875 5874 5874 5873 5873 5872 5872 5871 5871 5870 5870 5870 5869 5869 5868 5868
5863 5865 5867 5869 5870 5872 5873 5874 5875 5876 5876 5877 5877 5877 5878 5878 5877 5877 5877 5877 5876 5876 5875 5874 5873 5872 5872 5871 5871 5870 5869 5869 5868 5868 5867 5866 5866 5866 5865 5865 5864 5864 5864
5860 5862 5864 5866 5867 5868 5869 5870 5871 5872 5873 5873 5874 5874 5874 5874 5873 5873 5873 5872 5872 5871 5870 5869 5869 5868 5867 5866 5866 5865 5864 5864 5863 5863 5862 5861 5861 5860 5860 5859 5859 5859 5858
5858 5860 5861 5863 5864 5865 5866 5866 5867 5868 5868 5869 5869 5869 5869 5869 5869 5868 5868 5867 5866 5866 5865 5864 5863 5862 5861 5860 5860 5859 5858 5857 5857 5856 5856 5855 5855 5854 5854 5853 5853 5853 5852
5855 5857 5858 5859 5860 5861 5861 5862 5862 5863 5863 5863 5863 5864 5864 5863 5863 5862 5862 5861 5860 5859 5858 5857 5856 5855 5854 5853 5852 5852 5851 5850 5850 5849 5849 5848 5847 5847 5846 5846 5846 5845 5845
5852 5853 5854 5855 5856 5856 5857 5857 5857 5858 5858 5858 5858 5858 5857 5857 5856 5856 5855 5854 5853 5852 5851 5849 5848 5847 5846 5845 5844 5843 5842 5842 5841 5841 5840 5839 5839 5838 5838 5837 5837 5836 5836
5848 5849 5850 5850 5851 5851 5852 5852 5852 5852 5851 5851 5851 5850 5850 5849 5848 5848 5847 5846 5845 5843 5842 5841 5839 5838 5837 5836 5835 5834 5833 5832 5831 5830 5830 5829 5829 5828 5828 5827 5827 5826 5826
5843 5844 5845 5845 5846 5846 5846 5846 5845 5845 5844 5844 5843 5842 5841 5841 5840 5839 5837 5836 5835 5834 5833 5831 5830 5828 5827 5825 5824 5823 5822 5822 5821 5819 5818 5818 5817 5817 5817 5816 5816 5815 5815
5839 5839 5840 5840 5840 5840 5839 5839 5838 5837 5837 5836 5835 5834 5833 5832 5830 5829 5828 5826 5825 5823 5822 5821 5819 5817 5816 5814 5813 5812 5810 5810 5809 5807 5806 5805 5804 5804 5804 5804 5804 5803 5803
5833 5834 5834 5834 5833 5833 5833 5832 5831 5829 5828 5827 5825 5824 5823 5821 5820 5818 5817 5815 5813 5812 5810 5808 5807 5806 5804 5802 5801 5799 5798 5797 5797 5796 5793 5793 5791 5791 5791 5790 5790 5790 5790
5828 5828 5828 5827 5827 5826 5825 5824 5822 5821 5819 5818 5816 5814 5812 5810 5808 5807 5804 5802 5800 5798 5797 5795 5794 5793 5790 5789 5787 5786 5784 5783 5783 5781 5779 5779 5778 5776 5776 5775 5775 5776 5775
5822 5822 5821 5820 5820 5819 5817 5816 5814 5812 5810 5808 5806 5804 5801 5799 5797 5795 5792 5790 5788 5785 5784 5781 5780 5778 5776 5774 5773 5771 5769 5768 5767 5766 5764 5763 5763 5761 5760 5759 5759 5759 5759
5815 5814 5813 5812 5811 5810 5808 5806 5804 5802 5800 5797 5795 5793 5790 5788 5785 5782 5780 5777 5774 5772 5769 5767 5765 5763 5761 5759 5757 5755 5753 5752 5752 5751 5748 5746 5746 5745 5744 5744 5743 5742 5742
5808 5807 5805 5804 5802 5800 5799 5796 5794 5791 5789 5786 5783 5781 5778 5775 5772 5769 5766 5763 5760 5757 5755 5752 5750 5747 5745 5743 5741 5739 5737 5736 5735 5734 5732 5729 5729 5727 5727 5727 5725 5724 5723